LAPAN-A2 (IO-86) (40931 NORAD) Tracking and Keplerian Element Data

This shows tracking and keplerian element data for the satellite.

Feedback or suggestion? Click here.




ElementValue
Catalog40931
NameLAPAN-A2 (IO-86)
Epoch Orbit16949
Epoch Day320.10069045
Epoch Year2018
RAAN146.8543
Inclination6.0023
Eccentricity0.0013627
Argument of Perigee357.2688
Mean Anonmoly2.7485
Mean Motion14.76592181
Decay Rate8.18E-06
L11 40931U 15052B 18320.10069045 .00000818 00000-0 24853-4 0 9992
L22 40931 6.0023 146.8543 0013627 357.2688 2.7485 14.76592181169498

Live tracking and technical data element details for LAPAN-A2 (IO-86) (NORAD 40931). LAPAN-A2 (IO-86) can be tracked NOW for your location showing map with azimuth and elevation plus other details from your city location.

Track the satellite on the map from your city or location and see movement details for azimuth, elevation, latitude, longitude, range, height, and movement on the map or in text.







IsCatalogInMostPopularTable: catalog: 40931, numindb: 136
Update: records affected: 1



GetName: 40931 LAPAN-A2 (IO-86)

Hit Count: updated at: Fri, 16 Nov 2018 11:39:09 GMT